International Virtual Aviation Organisation

Russian Federation and Kazakhstan MCD

 

Карточка аэропорта UWOO

Внимание!
Информация на этой странице в стадии наполнения.
Если вы не увидели какой-то информации, или заметили неточность - пожалуйста сообщите нам!
Спасибо!
Команда RU-STAFF
Название аэропортаОренбург
Название аэропорта (англ.)Orenburg
Превышение387 ft. (118 m.)
Координаты51°48', 55°27'
Высота перехода700m
Эшелон переходаBy ATC
Коды ответчика2440-2443
Зона ОрВДСамара РПИ (UWWW)
Данные METARUWOO 242300Z 14006MPS CAVOK 04/02 Q1008 R08/150053 NOSIG RMK QFE746/0994
Проноз погоды (TAF)UWOO 241956Z 2421/2521 12009G14MPS 3100 -SHRA BR OVC011 BKN015CB TX03/2512Z TN00/2501Z TEMPO 2421/2506 14010G17MPS 0500 SHSNRA FG VV003 BECMG 2506/2507 22009G14MPS TEMPO 2507/2521 1000 SHSN BLSN OVC004 BKN015CB
NOTAMshow/hide NOTAM
AWOS   TABLE

Информация о ВПП

ВПП Длина ВПП (м.) Покрытие Курс ВПП Частота ILS
082501Асфальтобетон79109
262501Асфальтобетон259109.3

Диспетчерские позиции

Позывной Наименование органа УВД Частота
UWOO_TWRОренбург-Старт128.0
UWOO_R_APPОренбург - Круг120.400



Спутниковое изображение